Regional Weather Roundup
Issued by NWS

Home | Current Version | Previous Version | Text Only | Print | Product List | Glossary Off
Versions: 1 2 3 4 5 6 7 8 9 10 11 12 13 14 15 16 17 18 19 20 21 22 23 24 25 26 27 28 29 30 31 32 33 34 35 36 37 38 39 40 41 42 43 44 45 46 47 48 49 50

000
ASUS43 KLOT 240208
RWRIL

ILLINOIS REGIONAL WEATHER ROUNDUP
NATIONAL WEATHER SERVICE CHICAGO/ROMEOVILLE IL
800 PM CST THU NOV 23 2017

NOTE: "FAIR" INDICATES FEW OR NO CLOUDS BELOW 12,000 FEET WITH NO
SIGNIFICANT WEATHER AND/OR OBSTRUCTIONS TO VISIBILITY.

* THESE STATIONS ARE NOT UNDER NWS QUALITY CONTROL. THEY ALSO MAY NOT
  REPORT WEATHER SUCH AS PRECIPITATION OR FOG.

ILZ001-002-007-009-015-016-024-240300-
NORTHWEST ILLINOIS

CITY           SKY/WX    TMP DP  RH WIND       PRES   REMARKS
MOLINE         CLEAR     34  25  69 CALM      29.91F
STERLING*      CLEAR     31  27  85 CALM      29.92S
SAVANNA*       CLEAR     30  26  85 S3        29.91S
$$

ILZ003-004-008-010-011-017-018-240300-
NORTH CENTRAL ILLINOIS

CITY           SKY/WX    TMP DP  RH WIND       PRES   REMARKS
ROCKFORD       CLEAR     29  25  85 CALM      29.93R
FREEPORT*      CLEAR     30  24  80 S6        29.91F WCI  24
ROCHELLE*      CLEAR     30  27  88 S3        29.92S
DE KALB*       CLEAR     31  26  83 S6        29.92S WCI  25
PERU*          CLEAR     36  26  66 S6        29.93S WCI  31
$$

ILZ005-006-012>014-019>023-240300-
NORTHEAST ILLINOIS

CITY           SKY/WX    TMP DP  RH WIND       PRES   REMARKS
CHICAGO-OHARE  CLEAR     38  25  59 SW6       29.92S WCI  33
CHICAGO-MIDWAY CLEAR     39  27  62 S5        29.93S
AURORA         CLEAR     31  25  78 CALM      29.93S
LANSING*       CLEAR     35  30  82 CALM      29.94S
JOLIET*        CLEAR     32  28  87 CALM      29.94S
WAUKEGAN       CLEAR     33  25  72 SW5       29.89F WCI  29
DUPAGE AIRPORT CLEAR     30  27  88 S3        29.92S
KANKAKEE*      CLEAR     34  28  79 S5        29.95S WCI  29
WHEELING       CLEAR     32  26  78 S3        29.93S
MORRIS*        CLEAR     36  26  68 S3        29.93S
ROMEOVILLE*    CLEAR     36  28  71 S5        29.93S WCI  32
NORTHERLY ISL    N/A     42  25  51 S2          N/A
$$

LMZ740>746-240300-
SOUTHERN LAKE MICHIGAN

STATION/POSITION SKY/WX   TEMP    WIND        PRES    VSBY  WAVE
                          AIR SEA DIR/SP/G                  HT/PER
                          (F)     (DEG/KT/KT) (MB)    (MI)  (FT/S)
SOUTHERN BUOY              44 47  260/  8/ 10 1013.7          2/ 4
HARRISON CRIB              44     210/  4/  5   N/A
BURNHAM HARBOR             42     160/  4/  4   N/A
CALUMET HARBOR             40     190/  2/  3 1013.1S
BURNS HARBOR               40     190/  6/  9 1014.2F
MICHIGAN CITY              41     170/ 10/ 12   N/A
$$

ILZ025>027-034>036-040-047-049-050-058-095>099-240300-
WEST-CENTRAL ILLINOIS

CITY           SKY/WX    TMP DP  RH WIND       PRES   REMARKS
QUINCY         CLEAR     42  30  62 S5        29.94F
GALESBURG*     CLOUDY    30  27  89 S5        29.94F WCI  25
MACOMB*        CLEAR     33  28  82 CALM      29.96F
JACKSONVILLE*  CLEAR     34  27  75 CALM      29.96S
PITTSFIELD*    CLEAR     36  29  76 CALM      29.96F
$$

ILZ028>032-037-038-041>044-048-051>054-059>061-240300-
CENTRAL ILLINOIS

CITY           SKY/WX    TMP DP  RH WIND       PRES   REMARKS
PONTIAC        CLEAR     35  28  77 SW3       29.95S
BLOOMINGTON    CLOUDY    34  26  72 S6        29.95F WCI  29
DECATUR        CLEAR     35  28  75 S6        29.96F WCI  30
PEORIA         CLEAR     36  26  67 CALM      29.95S
LACON*         CLEAR     32  26  78 CALM      29.93S
LINCOLN*       CLEAR     35  30  82 CALM      29.96S
SPRINGFIELD    CLEAR     36  28  73 CALM      29.97S
TAYLORVILLE    CLEAR     35  28  74 S5        29.97S WCI  31
$$

ILZ033-039-045-046-055>057-062-063-240300-
EAST-CENTRAL ILLINOIS

CITY           SKY/WX    TMP DP  RH WIND       PRES   REMARKS
CHAMPAIGN      CLEAR     35  27  72 S10       29.97F WCI  27
DANVILLE*      CLEAR     35  26  69 S8        29.95F WCI  29
RANTOUL*       CLEAR     36  31  82 S6        29.96S WCI  31
MATTOON        CLEAR     38  27  64 S7        29.98S WCI  33
PARIS*         CLEAR     32  28  84 S5        30.00F WCI  27
$$

ILZ079-100>102-240300-
SOUTHWEST ILLINOIS

CITY           SKY/WX    TMP DP  RH WIND       PRES   REMARKS
ALTON          CLEAR     34  28  80 E5        29.97F WCI  30
BELLEVILLE     CLEAR     42  27  54 CALM      29.97R
CAHOKIA*       CLEAR     39  27  62 CALM      29.97S
SPARTA*        CLEAR     42  28  57 S7        29.99S
$$

ILZ064>066-069>071-074>076-080>082-084>086-088>090-092>094-240300-
SOUTH-CENTRAL ILLINOIS

CITY           SKY/WX    TMP DP  RH WIND       PRES   REMARKS
CARBONDALE     CLEAR     39  28  64 S9        30.00F WCI  33
CAIRO*         CLEAR     41  29  63 S3        30.03S
EFFINGHAM*     CLEAR     37  27  68 SE3       30.01S
MARION         CLEAR     39  28  62 S5        30.02S
MT. VERNON     CLEAR     35  26  69 CALM      30.01R
CENTRALIA*     CLEAR     40  28  62 SE5       29.99R
SALEM*         CLEAR     42  24  49 S3        30.00R
METROPOLIS*    CLEAR     38  26  61 CALM      30.04S
$$

ILZ067-068-072-073-078-083-087-091-240300-
SOUTHEAST ILLINOIS

CITY           SKY/WX    TMP DP  RH WIND       PRES   REMARKS
LAWRENCEVILLE  CLEAR     36  25  64 E6        30.03R WCI  31
FLORA*         CLEAR     37  27  68 SE3       30.01S
FAIRFIELD*     CLEAR     39  25  55 CALM      30.01S
HARRISBURG*    CLEAR     37  26  64 S3        30.03S
ROBINSON*      CLEAR     32  26  78 S3        30.03S
CARMI*         CLEAR     32  27  81 S6        30.02S WCI  26
$$

ABBREVIATIONS USED IN REMARKS
   TC - TEMPERATURE IN CELSIUS
  WCI - WIND CHILL INDEX
   HX - HEAT INDEX
  VSB - VISIBILITY
$$





USA.gov is the U.S. government's official web portal to all federal, state and local government web resources and services.